Location: Degersen
(52.2871°N, 9.5716°E)
Time: 17:16:17
(UTC+00:00)

Cosmos 2228 Rocket - Visible Passes

Search period start: 11 April 2026 00:00
Search period end: 21 April 2026 00:00
Orbit: 613 x 645 km, 82.5° (Epoch: 11 April)

Date Brightness Start Highest point End Pass type
(mag) Time Alt. Az. Time Alt. Az. Time Alt. Az.
11 Apr 5.9 20:16:38 10° NW 20:19:13 15° W 20:21:46 10° WSW visible
12 Apr 3.7 18:57:45 10° NNW 19:02:13 61° W 19:06:35 10° S visible
13 Apr 4.9 19:18:30 10° NNW 19:22:34 34° W 19:26:32 10° SSW visible
14 Apr 5.8 19:39:33 10° NW 19:42:47 20° W 19:45:58 10° SW visible
15 Apr 6.3 20:01:33 10° WNW 20:02:53 11° W 20:04:13 10° W visible
17 Apr 5.6 19:02:38 10° NNW 19:06:18 25° W 19:09:56 10° SW visible
18 Apr 6.1 19:24:00 10° NW 19:26:28 15° W 19:28:56 10° WSW visible
